PD2SKZ-12 Weather Reports


time (UTC)temp
C
wind
direction
speed
KPH
gust
KPH
rain 1hr
cm
rain 24hr
cm
rain mn
cm
humidity
%
barometer
mb
20260507194635 14 0.0 0.0 0.00 0.00 0.00 55 1017.6
20260507194135 14 0.0 3.2 0.00 0.00 0.00 54 1017.6
20260507193635 14 0.0 3.2 0.00 0.00 0.00 54 1017.5
20260507193136 14 285 1.6 6.4 0.00 0.00 0.00 53 1017.5
20260507192635 14 306 1.6 1.6 0.00 0.00 0.00 53 1017.4
20260507192156 14 289 3.2 4.8 0.00 0.00 0.00 52 1017.4
20260507191635 14 0.0 0.0 0.00 0.00 0.00 51 1017.3
20260507191135 14 0.0 0.0 0.00 0.00 0.00 51 1017.4
20260507190636 14 259 1.6 3.2 0.00 0.00 0.00 50 1017.4
20260507190136 15 162 1.6 4.8 0.00 0.00 0.00 50 1017.3
20260507185636 15 0.0 3.2 0.00 0.00 0.00 50 1017.3
20260507185235 15 90 0.0 4.8 0.00 0.00 0.00 50 1017.3
20260507184635 15 240 1.6 6.4 0.00 0.00 0.00 51 1017.3
20260507184135 15 297 1.6 4.8 0.00 0.00 0.00 52 1017.4
20260507183635 15 312 1.6 6.4 0.00 0.00 0.00 55 1017.4
20260507183137 14 0.0 3.2 0.00 0.00 0.00 63 1017.4
20260507182635 14 0.0 3.2 0.00 0.00 0.00 66 1017.4
20260507182135 14 319 4.8 6.4 0.00 0.00 0.00 66 1017.4
20260507181636 14 61 1.6 3.2 0.00 0.00 0.00 66 1017.3
20260507181136 14 325 1.6 4.8 0.00 0.00 0.00 66 1017.3
20260507180635 14 335 1.6 4.8 0.00 0.00 0.00 66 1017.3
20260507180136 14 353 3.2 8.0 0.00 0.00 0.00 66 1017.3
20260507175636 14 316 6.4 6.4 0.00 0.00 0.00 65 1017.3
20260507175136 14 336 6.4 6.4 0.00 0.00 0.00 65 1017.3
20260507174636 14 249 3.2 4.8 0.00 0.00 0.00 65 1017.2
20260507174155 14 306 4.8 6.4 0.00 0.00 0.00 64 1017.2
20260507173635 15 290 1.6 6.4 0.00 0.00 0.00 64 1017.3
20260507173136 15 321 3.2 8.0 0.00 0.00 0.00 64 1017.2
20260507172636 15 274 1.6 6.4 0.00 0.00 0.00 64 1017.2
20260507172135 15 296 4.8 11.3 0.00 0.00 0.00 64 1017.3
20260507171655 15 301 4.8 8.0 0.00 0.00 0.00 63 1017.3
20260507171216 15 318 3.2 6.4 0.00 0.00 0.00 64 1017.3
20260507170636 15 60 3.2 8.0 0.00 0.00 0.00 63 1017.3
20260507170136 15 334 3.2 8.0 0.00 0.00 0.00 62 1017.3
20260507165637 15 345 6.4 8.0 0.00 0.00 0.00 62 1017.3
20260507165136 15 312 8.0 14.5 0.00 0.00 0.00 62 1017.3
20260507164716 15 275 9.7 11.3 0.00 0.00 0.00 62 1017.2
20260507164216 15 294 3.2 6.4 0.00 0.00 0.00 60 1017.3
20260507163655 15 328 4.8 11.3 0.00 0.00 0.00 60 1017.2
20260507163135 15 329 4.8 9.7 0.00 0.00 0.00 60 1017.2
20260507162636 15 290 4.8 8.0 0.00 0.00 0.00 59 1017.2
20260507162136 15 309 4.8 9.7 0.00 0.00 0.00 58 1017.2
20260507161636 16 336 1.6 8.0 0.00 0.00 0.00 57 1017.1
20260507161136 16 344 1.6 4.8 0.00 0.00 0.00 58 1017.2
20260507160655 16 323 0.0 6.4 0.00 0.00 0.00 58 1017.2
20260507160136 15 283 3.2 11.3 0.00 0.00 0.00 58 1017.2
20260507155716 15 332 6.4 8.0 0.00 0.00 0.00 59 1017.2
20260507155136 16 282 1.6 8.0 0.00 0.00 0.00 58 1017.2
20260507154636 15 271 3.2 8.0 0.00 0.00 0.00 60 1017.1
20260507154135 15 313 6.4 9.7 0.00 0.00 0.00 59 1017.1
20260507153636 15 290 4.8 6.4 0.00 0.00 0.00 58 1017.1
20260507153136 15 295 4.8 11.3 0.00 0.00 0.00 59 1017.1
20260507152635 15 357 3.2 9.7 0.00 0.00 0.00 58 1017.2
20260507152137 15 338 3.2 6.4 0.00 0.00 0.00 58 1017.2
20260507151636 15 272 8.0 11.3 0.00 0.00 0.00 57 1017.2
20260507151136 16 313 6.4 9.7 0.00 0.00 0.00 58 1017.2
20260507150656 16 305 4.8 8.0 0.00 0.00 0.00 57 1017.2
20260507150135 16 274 8.0 11.3 0.00 0.00 0.00 55 1017.2
20260507145636 16 302 4.8 9.7 0.00 0.00 0.00 58 1017.2
20260507145136 16 273 3.2 9.7 0.00 0.00 0.00 57 1017.2
20260507144636 15 346 6.4 14.5 0.00 0.00 0.00 58 1017.2
20260507144136 15 295 12.9 17.7 0.00 0.00 0.00 58 1017.2
20260507143636 16 81 4.8 6.4 0.00 0.00 0.00 59 1017.2
20260507143136 16 314 6.4 11.3 0.00 0.00 0.00 56 1017.2
20260507142636 15 54 4.8 9.7 0.00 0.00 0.00 59 1017.2
20260507142136 15 263 9.7 14.5 0.00 0.00 0.00 60 1017.1
20260507141636 15 276 8.0 17.7 0.00 0.00 0.00 60 1017.2
20260507141136 15 310 6.4 11.3 0.00 0.00 0.00 60 1017.2
20260507140636 15 281 6.4 12.9 0.00 0.00 0.00 61 1017.3
20260507140136 15 9 9.7 9.7 0.00 0.00 0.00 60 1017.4
20260507135636 15 346 8.0 9.7 0.00 0.00 0.00 61 1017.4
20260507135156 15 263 4.8 8.0 0.00 0.00 0.00 60 1017.5
20260507134658 15 283 4.8 6.4 0.00 0.00 0.00 59 1017.5
20260507134136 15 303 9.7 19.3 0.00 0.00 0.00 60 1017.5
20260507133636 15 271 8.0 9.7 0.00 0.00 0.00 57 1017.4
20260507133136 15 286 6.4 11.3 0.00 0.00 0.00 59 1017.5
20260507132636 15 333 4.8 11.3 0.00 0.00 0.00 59 1017.4
20260507132136 15 260 1.6 11.3 0.00 0.00 0.00 58 1017.4
20260507131656 15 287 8.0 12.9 0.00 0.00 0.00 57 1017.4
20260507131136 16 280 4.8 9.7 0.00 0.00 0.00 57 1017.4
20260507130636 15 10 8.0 11.3 0.00 0.00 0.00 58 1017.3
20260507130136 15 291 8.0 16.1 0.00 0.00 0.00 58 1017.3
20260507125656 15 321 0.0 12.9 0.00 0.00 0.00 58 1017.3
20260507125136 15 274 9.7 11.3 0.00 0.00 0.00 58 1017.3
20260507124636 15 359 6.4 16.1 0.00 0.00 0.00 57 1017.3
20260507124136 14 284 3.2 12.9 0.00 0.00 0.00 59 1017.2
20260507123636 15 328 3.2 8.0 0.00 0.00 0.00 58 1017.2
20260507123136 15 164 6.4 9.7 0.00 0.00 0.00 58 1017.2
20260507122656 15 278 6.4 12.9 0.00 0.00 0.00 56 1017.3
20260507122136 15 290 3.2 9.7 0.00 0.00 0.00 57 1017.3
20260507121636 15 310 6.4 12.9 0.00 0.00 0.00 56 1017.2
20260507121158 15 326 8.0 11.3 0.00 0.00 0.00 56 1017.3
20260507120636 15 354 6.4 9.7 0.00 0.00 0.00 55 1017.3
20260507120136 16 332 4.8 9.7 0.00 0.00 0.00 41 1017.3
20260507115716 17 316 3.2 4.8 0.00 0.00 0.00 40 1017.3
20260507115136 16 309 1.6 3.2 0.00 0.00 0.00 40 1017.3
20260507114656 17 0.0 0.0 0.00 0.00 0.00 41 1017.2
20260507114136 17 0.0 4.8 0.00 0.00 0.00 41 1017.3
20260507113636 18 147 4.8 6.4 0.00 0.00 0.00 37 1017.3
20260507113136 17 0.0 0.0 0.00 0.00 0.00 40 1017.3
20260507112637 17 129 4.8 8.0 0.00 0.00 0.00 39 1017.3
20260507112136 17 326 1.6 8.0 0.00 0.00 0.00 40 1017.4
20260507111636 17 112 3.2 3.2 0.00 0.00 0.00 39 1017.4
20260507111136 17 0.0 3.2 0.00 0.00 0.00 42 1017.4
20260507110636 16 283 4.8 12.9 0.00 0.00 0.00 43 1017.5
20260507110136 16 12 3.2 3.2 0.00 0.00 0.00 42 1017.5
20260507105636 15 307 3.2 11.3 0.00 0.00 0.00 44 1017.4
20260507105136 16 304 4.8 11.3 0.00 0.00 0.00 41 1017.5
20260507104636 16 129 1.6 1.6 0.00 0.00 0.00 41 1017.5
20260507104136 16 277 1.6 3.2 0.00 0.00 0.00 43 1017.5
20260507103639 16 290 4.8 8.0 0.00 0.00 0.00 43 1017.5
20260507103136 16 0.0 4.8 0.00 0.00 0.00 44 1017.6
20260507102636 15 0.0 6.4 0.00 0.00 0.00 44 1017.6
20260507102136 15 0.0 11.3 0.00 0.00 0.00 44 1017.7
20260507101636 16 313 1.6 3.2 0.00 0.00 0.00 44 1017.6
20260507101136 17 279 4.8 8.0 0.00 0.00 0.00 40 1017.6
20260507100657 16 229 1.6 3.2 0.00 0.00 0.00 43 1017.5
20260507100156 16 354 1.6 8.0 0.00 0.00 0.00 44 1017.6
20260507095636 15 200 1.6 6.4 0.00 0.00 0.00 46 1017.5
20260507095136 15 271 6.4 16.1 0.00 0.00 0.00 45 1017.5
20260507094636 15 271 3.2 6.4 0.00 0.00 0.00 48 1017.5
20260507094136 15 274 1.6 6.4 0.00 0.00 0.00 48 1017.4
20260507093636 15 317 4.8 9.7 0.00 0.00 0.00 48 1017.4
20260507093137 15 326 3.2 6.4 0.00 0.00 0.00 49 1017.4
20260507092636 15 251 8.0 9.7 0.00 0.00 0.00 50 1017.4
20260507092137 15 338 4.8 11.3 0.00 0.00 0.00 49 1017.3
20260507091637 16 277 3.2 6.4 0.00 0.00 0.00 46 1017.3
20260507091136 15 0.0 4.8 0.00 0.00 0.00 51 1017.3
20260507090636 15 284 6.4 9.7 0.00 0.00 0.00 51 1017.3
20260507090159 15 0.0 4.8 0.00 0.00 0.00 51 1017.3
20260507085636 15 312 3.2 8.0 0.00 0.00 0.00 51 1017.3
20260507085136 15 0.0 3.2 0.00 0.00 0.00 51 1017.2
20260507084636 15 0.0 3.2 0.00 0.00 0.00 52 1017.2
20260507084136 14 6 3.2 9.7 0.00 0.00 0.00 53 1017.2
20260507083636 15 289 3.2 4.8 0.00 0.00 0.00 54 1017.2
20260507083136 15 268 1.6 3.2 0.00 0.00 0.00 54 1017.2
20260507082636 14 289 3.2 6.4 0.00 0.00 0.00 56 1017.3
20260507082136 13 284 1.6 6.4 0.00 0.00 0.00 56 1017.3
20260507081636 15 323 6.4 8.0 0.00 0.00 0.00 53 1017.3
20260507081137 14 308 0.0 8.0 0.00 0.00 0.00 56 1017.3
20260507080637 13 318 4.8 8.0 0.00 0.00 0.00 55 1017.3
20260507080136 15 260 3.2 3.2 0.00 0.00 0.00 53 1017.2
20260507075636 13 2 3.2 6.4 0.00 0.00 0.00 57 1017.2
20260507075136 13 185 1.6 6.4 0.00 0.00 0.00 59 1017.2
20260507074637 13 57 0.0 4.8 0.00 0.00 0.00 59 1017.2
20260507074146 13 309 6.4 6.4 0.00 0.00 0.00 59 1017.1
20260507073536 13 0.0 4.8 0.00 0.00 0.00 61 1017.0
20260507073037 12 289 1.6 4.8 0.00 0.00 0.00 64 1017.1
20260507072536 12 305 3.2 8.0 0.00 0.00 0.00 66 1017.0
20260507072037 12 310 6.4 11.3 0.00 0.00 0.00 66 1017.1
20260507071537 12 22 1.6 6.4 0.00 0.00 0.00 66 1017.0
20260507071037 12 295 4.8 6.4 0.00 0.00 0.00 64 1017.0
20260507070537 12 0.0 4.8 0.00 0.00 0.00 67 1017.0
20260507070036 12 0.0 3.2 0.00 0.00 0.00 66 1017.0
20260507065536 12 0.0 6.4 0.00 0.00 0.00 68 1017.0
20260507065007 12 271 3.2 9.7 0.00 0.00 0.00 67 1016.9
20260507064547 11 299 6.4 6.4 0.00 0.00 0.00 70 1017.0
20260507063837 12 103 1.6 4.8 0.00 0.00 0.00 68 1016.9
20260507063337 11 0.0 3.2 0.00 0.00 0.00 70 1016.9
20260507062837 11 315 4.8 8.0 0.00 0.00 0.00 72 1016.9
20260507062337 11 0.0 8.0 0.00 0.00 0.00 71 1016.9
20260507061837 11 209 1.6 3.2 0.00 0.00 0.00 72 1016.9
20260507061356 11 311 6.4 8.0 0.00 0.00 0.00 73 1016.9
20260507060836 11 329 3.2 6.4 0.00 0.00 0.00 73 1016.8
20260507060337 10 273 1.6 3.2 0.00 0.00 0.00 76 1016.8
20260507055837 10 278 1.6 3.2 0.00 0.00 0.00 76 1016.8
20260507055307 10 294 4.8 4.8 0.00 0.00 0.00 75 1016.8
20260507054707 10 0.0 1.6 0.00 0.00 0.00 79 1016.7
20260507054137 10 0.0 0.0 0.00 0.00 0.00 80 1016.6
20260507053637 8 300 0.0 1.6 0.00 0.00 0.00 85 1016.6
20260507053137 8 0.0 0.0 0.00 0.00 0.00 87 1016.6
20260507052718 7 0.0 0.0 0.00 0.00 0.00 89 1016.5
20260507052137 7 0.0 0.0 0.00 0.00 0.00 90 1016.4
20260507051637 7 0.0 0.0 0.00 0.00 0.00 91 1016.4
20260507051137 7 0.0 0.0 0.00 0.00 0.00 91 1016.4
20260507050637 7 0.0 0.0 0.00 0.00 0.00 92 1016.3
20260507050137 6 0.0 0.0 0.00 0.00 0.00 92 1016.2
20260507045607 6 0.0 0.0 0.00 0.00 0.00 92 1016.2
20260507045006 6 0.0 0.0 0.00 0.00 0.00 92 1016.1
20260507044437 6 0.0 0.0 0.00 0.00 0.00 92 1015.9
20260507043937 6 0.0 0.0 0.00 0.00 0.00 92 1015.9
20260507043436 6 0.0 0.0 0.00 0.00 0.00 92 1015.9
20260507042936 6 0.0 0.0 0.00 0.00 0.00 91 1015.9
20260507042437 6 0.0 0.0 0.00 0.00 0.00 91 1015.9
20260507041937 6 0.0 0.0 0.00 0.00 0.00 91 1015.9
20260507041437 6 0.0 0.0 0.00 0.00 0.00 91 1015.9
20260507040957 6 0.0 0.0 0.00 0.00 0.00 91 1015.8
20260507040437 6 0.0 0.0 0.00 0.00 0.00 90 1015.8
20260507035927 6 0.0 0.0 0.00 0.00 0.00 90 1015.7
20260507035307 6 0.0 0.0 0.00 0.00 0.00 90 1015.8
20260507034837 6 0.0 0.0 0.00 0.00 0.00 90 1015.7
20260507034337 6 309 1.6 3.2 0.00 0.00 0.00 90 1015.7
20260507033837 6 309 1.6 3.2 0.00 0.00 0.00 90 1015.7
20260507033356 6 0.0 1.6 0.00 0.00 0.00 89 1015.7
20260507032837 6 0.0 0.0 0.00 0.00 0.00 89 1015.6
20260507032337 7 0.0 0.0 0.00 0.00 0.00 89 1015.5
20260507031838 7 0.0 0.0 0.00 0.00 0.00 89 1015.5
20260507031356 7 0.0 0.0 0.00 0.00 0.00 88 1015.5
20260507030837 7 304 0.0 3.2 0.00 0.00 0.00 88 1015.4
20260507030337 7 304 0.0 3.2 0.00 0.00 0.00 88 1015.4
20260507025857 7 304 3.2 3.2 0.00 0.00 0.00 88 1015.4
20260507025337 7 304 1.6 3.2 0.00 0.00 0.00 88 1015.5
20260507024857 7 304 0.0 1.6 0.00 0.00 0.00 88 1015.4
20260507024307 7 0.0 3.2 0.00 0.00 0.00 88 1015.4
20260507023737 7 0.0 0.0 0.00 0.00 0.00 88 1015.3
20260507023237 7 0.0 0.0 0.00 0.00 0.00 88 1015.3
20260507022737 7 0.0 0.0 0.00 0.00 0.00 87 1015.3
20260507022237 7 304 1.6 3.2 0.00 0.00 0.00 87 1015.3
20260507021738 7 304 3.2 3.2 0.00 0.00 0.00 87 1015.3
20260507021236 7 304 1.6 6.4 0.00 0.00 0.00 87 1015.3
20260507020737 7 313 1.6 3.2 0.00 0.00 0.00 87 1015.2
20260507020237 7 313 1.6 4.8 0.00 0.00 0.00 87 1015.2
20260507015737 7 313 1.6 4.8 0.00 0.00 0.00 87 1015.1
20260507015237 7 320 1.6 3.2 0.00 0.00 0.00 87 1015.1
20260507014737 7 310 3.2 4.8 0.00 0.00 0.00 87 1015.1
20260507014237 7 307 4.8 8.0 0.00 0.00 0.00 87 1015.0
20260507013737 7 321 4.8 4.8 0.00 0.00 0.00 87 1015.0
20260507013237 7 315 4.8 6.4 0.00 0.00 0.00 87 1015.0
20260507012707 7 324 1.6 6.4 0.00 0.00 0.00 87 1015.0
20260507012157 7 311 1.6 4.8 0.00 0.00 0.00 87 1015.0
20260507011637 8 301 3.2 6.4 0.00 0.00 0.00 87 1014.9
20260507011137 8 315 1.6 4.8 0.00 0.00 0.00 87 1014.9
20260507010637 8 298 3.2 4.8 0.00 0.00 0.00 87 1014.9
20260507010137 8 314 3.2 8.0 0.00 0.00 0.00 87 1014.9
20260507005657 8 307 3.2 6.4 0.00 0.00 0.00 87 1014.9
20260507005137 8 315 4.8 6.4 0.00 0.00 0.00 87 1014.9
20260507004637 8 310 3.2 6.4 0.00 0.00 0.00 87 1014.8
20260507004137 8 0.0 3.2 0.00 0.00 0.00 86 1014.9
20260507003637 8 308 3.2 6.4 0.00 0.00 0.00 86 1014.9
20260507003137 8 325 4.8 4.8 0.00 0.00 0.00 86 1014.8
20260507002637 8 270 1.6 6.4 0.00 0.00 0.00 86 1014.8
20260507002137 8 283 1.6 4.8 0.00 0.00 0.00 86 1014.7
20260507001637 8 296 3.2 4.8 0.00 0.00 0.00 86 1014.6
20260507001137 8 312 3.2 6.4 0.00 0.00 0.00 85 1014.6
20260507000637 8 300 1.6 4.8 0.00 0.00 0.00 85 1014.7
20260507000137 8 326 3.2 9.7 0.00 0.00 0.00 85 1014.7
20260506235637 8 322 4.8 6.4 0.00 0.00 0.00 85 1014.7
20260506235138 8 298 3.2 6.4 0.00 0.00 0.00 85 1014.6
20260506234637 8 326 4.8 6.4 0.00 0.00 0.00 84 1014.6
20260506234137 8 296 1.6 4.8 0.00 0.00 0.00 84 1014.6
20260506233637 8 307 3.2 6.4 0.00 0.00 0.00 84 1014.6
20260506233137 8 295 3.2 4.8 0.00 0.00 0.00 83 1014.6
20260506232637 8 300 0.0 4.8 0.00 0.00 0.00 83 1014.4
20260506232137 9 320 3.2 4.8 0.00 0.00 0.00 83 1014.5
20260506231637 9 324 6.4 9.7 0.00 0.00 0.00 82 1014.5
20260506231137 9 328 4.8 6.4 0.00 0.00 0.00 82 1014.5
20260506230637 9 309 4.8 8.0 0.00 0.00 0.00 81 1014.5
20260506230157 9 306 3.2 8.0 0.00 0.00 0.00 81 1014.4
20260506225637 9 300 3.2 8.0 0.00 0.00 0.00 80 1014.5
20260506225157 9 309 4.8 11.3 0.00 0.00 0.00 80 1014.4
20260506224637 9 312 4.8 6.4 0.00 0.00 0.00 79 1014.4
20260506224137 10 296 4.8 8.0 0.00 0.00 0.00 79 1014.4
20260506223737 10 346 3.2 11.3 0.00 0.00 0.00 78 1014.4
20260506223137 10 296 4.8 8.0 0.00 0.00 0.00 78 1014.3
20260506222637 10 313 8.0 12.9 0.00 0.00 0.00 77 1014.3
20260506222138 10 313 3.2 9.7 0.00 0.00 0.00 76 1014.3
20260506221638 10 313 3.2 4.8 0.00 0.00 0.00 76 1014.3
20260506221157 10 322 4.8 9.7 0.00 0.00 0.00 75 1014.3
20260506220637 10 339 4.8 11.3 0.00 0.00 0.00 75 1014.2
20260506220157 10 293 4.8 8.0 0.00 0.00 0.00 74 1014.2
20260506215637 10 326 4.8 4.8 0.00 0.00 0.00 74 1014.1
20260506215137 10 308 6.4 9.7 0.00 0.00 0.00 73 1014.1
20260506214657 10 304 4.8 6.4 0.00 0.00 0.00 72 1014.1
20260506214137 11 332 3.2 8.0 0.00 0.00 0.00 71 1014.0
20260506213637 11 314 4.8 12.9 0.00 0.00 0.00 71 1014.0
20260506213137 11 351 3.2 6.4 0.00 0.00 0.00 70 1014.0
20260506212637 11 312 8.0 11.3 0.00 0.00 0.00 68 1013.9
20260506212137 11 320 8.0 11.3 0.00 0.00 0.00 67 1013.9
20260506211637 11 313 4.8 11.3 0.00 0.00 0.00 66 1013.9
20260506211157 11 318 6.4 12.9 0.00 0.00 0.00 65 1013.8
20260506210637 11 342 6.4 11.3 0.00 0.00 0.00 64 1013.7
20260506210137 11 298 1.6 8.0 0.00 0.00 0.00 64 1013.7
20260506205637 12 275 3.2 11.3 0.00 0.00 0.00 64 1013.7
20260506205137 12 293 4.8 12.9 0.00 0.00 0.00 64 1013.7
20260506204638 12 300 8.0 9.7 0.00 0.00 0.00 64 1013.6
20260506204158 12 313 4.8 4.8 0.00 0.00 0.00 64 1013.5
20260506203637 12 314 6.4 6.4 0.00 0.00 0.00 64 1013.5
20260506203137 12 318 4.8 9.7 0.00 0.00 0.00 64 1013.5
20260506202657 12 325 8.0 12.9 0.00 0.00 0.00 63 1013.4
20260506202137 12 298 9.7 12.9 0.00 0.00 0.00 64 1013.5
20260506201657 12 304 3.2 6.4 0.00 0.00 0.00 64 1013.4
20260506201137 12 297 6.4 8.0 0.00 0.00 0.00 63 1013.4
20260506200637 12 298 6.4 11.3 0.00 0.00 0.00 64 1013.3
20260506200138 12 316 1.6 6.4 0.00 0.00 0.00 63 1013.3
20260506195638 12 296 3.2 8.0 0.00 0.00 0.00 63 1013.2
20260506195137 12 318 9.7 12.9 0.00 0.00 0.00 63 1013.2